EDT,Max TemperatureF,Mean TemperatureF,Min TemperatureF,Max Dew PointF,MeanDew PointF,Min DewpointF,Max Humidity, Mean Humidity, Min Humidity, Max Sea Level PressureIn, Mean Sea Level PressureIn, Min Sea Level PressureIn, Max VisibilityMiles, Mean VisibilityMiles, Min VisibilityMiles, Max Wind SpeedMPH, Mean Wind SpeedMPH, Max Gust SpeedMPH,PrecipitationIn, CloudCover, Events, WindDirDegrees
2012-5-1,78,65,53,61,55,45,94,79,48,30.10,30.00,29.97,10,7,2,14,5,20,0.22,6,Rain-Thunderstorm,259
2012-5-2,60,57,53,58,54,50,94,88,81,30.15,30.08,30.00,6,4,2,12,7,,0.07,7,Rain,109
2012-5-3,73,63,53,65,55,51,94,87,71,30.18,30.10,30.03,7,4,1,12,5,,0.19,6,Rain-Thunderstorm,148
2012-5-4,81,69,57,67,60,55,96,83,56,30.04,29.97,29.86,10,4,0,10,5,21,0.20,6,Fog-Rain-Thunderstorm,136
2012-5-5,75,66,57,63,61,57,100,86,58,29.95,29.90,29.87,10,4,0,14,3,,0.01,2,Fog,341
2012-5-6,,,,,,,,,,,,,,,,,,,,,,
2012-5-7,61,57,53,55,51,49,88,78,64,30.11,30.09,30.05,10,9,7,9,5,,0.01,8,Rain,140
2012-5-8,66,66,64,59,58,57,84,77,70,29.87,29.83,29.79,10,10,10,15,13,25,0.00,8,Rain,195
2012-5-9,66,64,57,61,58,54,93,86,76,29.75,29.72,29.65,9,6,4,10,5,,0.02,8,Rain,229
2012-5-10,64,56,48,54,41,36,93,59,38,29.90,29.74,29.59,10,10,4,23,14,31,0.01,3,,291
2012-5-11,70,56,41,40,37,35,79,50,28,30.15,30.04,29.92,10,10,10,16,8,28,0.00,0,,282
2012-5-12,78,62,45,47,44,38,83,52,32,30.28,30.22,30.17,10,10,8,13,6,21,0.00,0,,264
2012-5-13,80,66,52,59,52,46,86,62,39,30.20,30.15,30.09,10,9,7,10,2,,0.00,3,Rain,237
2012-5-14,66,62,59,63,60,56,94,90,78,30.13,30.09,30.05,10,4,1,10,5,,0.50,7,Rain,140
2012-5-15,75,68,62,65,62,60,97,89,66,30.05,29.97,29.90,10,6,1,10,5,,0.87,7,Rain,137
2012-5-16,81,70,60,63,57,50,97,66,36,29.94,29.90,29.83,10,7,2,10,3,20,0.00,3,,263
2012-5-17,72,62,53,57,44,39,78,55,32,30.15,30.08,29.95,10,10,8,15,7,23,0.00,1,,8
2012-5-18,75,60,46,47,44,40,83,55,32,30.21,30.16,30.12,10,10,10,6,2,,0.00,0,,115
2012-5-19,82,64,48,53,48,44,86,55,30,30.18,30.14,30.09,10,10,8,9,2,16,0.00,0,,80
2012-5-20,81,68,55,61,52,45,88,58,29,30.21,30.17,30.14,10,10,8,14,5,22,0.00,1,,87
2012-5-21,71,66,62,62,61,59,94,86,73,30.15,30.05,29.96,10,9,5,14,9,20,0.00,7,Rain,85
2012-5-22,77,68,62,61,60,59,94,78,60,29.93,29.87,29.80,10,9,7,7,4,,0.00,7,,95
2012-5-23,81,70,60,66,62,57,100,83,54,30.00,29.92,29.86,10,5,1,15,4,18,0.02,3,Rain,102
2012-5-24,82,72,62,66,63,60,100,83,52,30.12,30.07,30.00,10,5,0,14,5,22,0.00,6,Fog,123
2012-5-25,84,73,64,66,65,61,94,79,56,30.15,30.13,30.09,10,7,2,10,5,,0.00,6,Rain,136
2012-5-26,89,75,62,72,66,61,100,83,55,30.16,30.13,30.08,10,5,0,12,2,,0.39,3,Fog-Rain-Thunderstorm,147
2012-5-27,87,77,66,70,67,64,96,80,53,30.15,30.10,30.00,10,7,2,16,4,17,0.14,3,Rain,209
2012-5-28,89,76,62,71,66,61,94,77,53,30.04,29.98,29.91,10,7,2,8,4,,0.00,0,,242
2012-5-29,91,80,68,70,67,63,94,78,45,29.91,29.81,29.70,10,7,2,32,6,41,0.61,3,Rain-Thunderstorm,208
2012-5-30,82,73,64,66,63,57,94,77,42,29.81,29.76,29.71,10,8,4,7,3,,0.00,4,,265
2012-5-31,80,69,59,61,53,48,90,57,35,29.90,29.84,29.73,10,10,7,12,3,16,0.00,1,,332